Regional Weather Roundup
Issued by NWS Charleston, SC

Current Version | Previous Version | Text Only | Print | Product List | Glossary Off
Versions: 1 2 3 4 5 6 7 8 9 10 11 12 13 14 15 16 17 18 19 20 21 22 23 24 25 26 27 28 29 30 31 32 33 34 35 36 37 38 39 40 41 42 43 44 45 46 47 48 49 50
000 ASUS42 KCHS 190527 RWRCHS REGIONAL WEATHER ROUNDUP NATIONAL WEATHER SERVICE CHARLESTON SC 1200 AM EST SUN FEB 19 2017 NOTE: "FAIR" INDICATES FEW OR NO CLOUDS BELOW 12,000 FEET WITH NO SIGNIFICANT WEATHER AND/OR OBSTRUCTIONS TO VISIBILITY. NOT ALL STATIONS ARE QUALITY CONTROLLED. USE DATA WITH CAUTION... ESPECIALLY DEWPOINT OBSERVATIONS. SCZ027-030-031-034>040-042>050-190600- ...SOUTHEAST SOUTH CAROLINA... CITY SKY/WX TMP DP RH WIND PRES REMARKS N CHARLESTON CLEAR 54 49 83 W3 29.98R WATERFRONT PRK N/A 57 52 83 CALM 29.97S MOUNT PLEASANT LGT RAIN 52 48 87 CALM 29.98S JOHNS ISLAND FAIR 52 50 93 W3 29.98S PINOPOLIS N/A 57 50 77 W5 29.89S MONCKS CORNER FAIR 48 45 87 CALM 29.98S SUMMERVILLE FAIR 48 45 87 CALM 30.00R BEAUFORT MCAS PTCLDY 51 51 100 CALM 29.99S FOG BEAUFORT ARPT FAIR 54 50 87 CALM 29.98S HILTON HEAD IS CLEAR 52 52 100 NW3 29.99S WALTERBORO MOCLDY 50 45 81 CALM 30.00S ALLENDALE MOCLDY 50 48 93 CALM 29.99S ...SOUTHERN MIDLANDS AND PEE DEE... CITY SKY/WX TMP DP RH WIND PRES REMARKS GEORGETOWN FAIR 50 48 93 CALM 29.98S KINGSTREE CLOUDY 48 43 81 CALM 29.98S ORANGEBURG CLEAR 51 48 89 NW5 30.00S BARNWELL CLOUDY 52 50 93 CALM 30.00S AIKEN CLOUDY 48 46 93 SW3 30.02F MANNING CLOUDY 50 41 71 MISG 29.99S COLUMBIA CLOUDY 51 49 92 CALM 29.99F SUMTER MOCLDY 53 47 81 W5 29.96F FLORENCE CLOUDY 55 47 74 W7 29.97S MYRTLE BEACH MOCLDY 57 51 80 CALM 29.97R N MYRTLE BEACH MOCLDY 56 54 93 SW10 29.96R $$ GAZ063-065-086>088-099>101-113>116-118-119-134>141-150-190600- ...SOUTHEAST GEORGIA... CITY SKY/WX TMP DP RH WIND PRES REMARKS SAVANNAH ARPT CLEAR 50 46 86 CALM 30.00S HUNTER AAF CLEAR 51 50 99 W5 29.96F FORT STEWART PTCLDY 50 47 91 CALM 29.97F STATESBORO PTCLDY 51 51 100 CALM 30.00S SYLVANIA PTCLDY N/A N/A N/A CALM 30.01S CLAXTON FAIR N/A N/A N/A CALM 30.00S ...CSRA...CENTRAL AND FAR SOUTHEAST GEORGIA... CITY SKY/WX TMP DP RH WIND PRES REMARKS THOMSON CLOUDY 51 51 100 CALM 30.03F AUGUSTA-BUSH CLOUDY 51 49 92 CALM 30.00S FOG AUGUSTA-DANIEL CLOUDY 52 49 89 CALM 30.00F SWAINSBORO CLOUDY 52 52 100 CALM 30.01S VIDALIA MOCLDY 54 54 100 CALM 30.00S EASTMAN CLOUDY 54 54 100 CALM 30.03S HAZLEHURST MOCLDY 58 58 100 CALM 29.99S ALMA CLEAR 55 54 96 CALM 29.99F WAYCROSS PTCLDY 58 58 100 CALM 30.00F JESUP MOCLDY 55 52 88 CALM 30.00F BAXLEY FAIR 54 54 100 CALM 29.99S BRUNSWICK MOCLDY 55 55 100 SW3 30.00S SAINT SIMONS CLEAR 57 55 93 W3 29.99F $$ SCZ027-028-034-036>038-045-046-048>050-GAZ119-141-190600- ...LAKE AND SUPPLEMENTAL COASTAL OBSERVATIONS... STATION/POSITION TIME TEMP WIND PRES WAVE SWELL AIR SEA DIR/SP/G HT/PER HT/PER/DIR (UTC) (F) (DEG/KT/KT) (MB) (FT/S) (FT/S/D) WINYAH BAY 0445 55 230/ 2 1015.0R LAKE MURRAY 0520 52 240/ 2/ 4 1014.6F ACE BASIN NERRS 0430 53 300/ 1 1015.0S FORT PULASKI 0500 57 59 310/ 4/ 4 1015.4 SAPELO ISLAND 0500 57 CALM 1015.0 $$ ANZ835-935-AMZ111-154-330-350-352-354-370-450-454-472-190600- ...C-MAN AND BUOY OBSERVATIONS... STATION/POSITION TIME TEMP WIND PRES WAVE SWELL AIR SEA DIR/SP/G HT/PER HT/PER/DIR (UTC) (F) (DEG/KT/KT) (MB) (FT/S) (FT/S/D) BUOY 41004 0450 65 69 280/ 10/ 12 1014.4F 2/ 5 2/200/ 5 BUOY 41008 0450 62 61 260/ 6/ 6 1015.0F 2/ 4 2/150/ 4 FOLLY BEACH CMAN 0500 58 250/ 3/ 4 1015.3F CAPERS NEARSHORE 0508 59 59 240/ 6/ 6 1014.5F FRIPP NEARSHORE 0508 59 59 300/ 6/ 8 1014.7F STATION/POSITION TIME TEMP WIND PRES WAVE SWELL AIR SEA DIR/SP/G HT/PER HT/PER/DIR (UTC) (F) (DEG/KT/KT) (MB) (FT/S) (FT/S/D) 5E ST. MARYS GA 0500 63 N/A 2/ 4 FRYING PAN BUOY 0510 64 64 240/ 10/ 12 1014.3 BUOY 41025 0450 67 67 240/ 19/ 23 1013.4R 4/ 5 2/180/ 8 CAPE LOOKOUT NC 0500 60 220/ 9/ 12 1013.6F BUOY 41002 0450 70 71 180/ 16/ 19 1016.7F 4/ 6 2/ 10/10 BUOY 41010 NOT AVBL ST AUGUSTINE FL 0500 64 66 270/ 4/ 4 1016.8F $$

USA.gov is the U.S. government's official web portal to all federal, state and local government web resources and services.